Simultaneous Nadir Overpasses (SNOs) Predictions

Prediction of SNOs between GOES-16 and AQUA Satellite Orbit:

Table of predicted SNOs for the next 14.0 days since TLE Epoch: 10/26/2018
Index Date Time (GOES-16) GOES-16 Lat,Lon AQUA Lat,Lon Distance(km) Time Diff (sec)
1 10/28/2018 18:23:12 0.00, -75.26 0.74, -71.70 404.81 80
2 10/29/2018 06:44:27 -0.00, -75.27 0.36, -76.85 180.41 80
3 10/31/2018 06:29:35 -0.00, -75.28 -0.27, -73.89 157.85 80
4 10/31/2018 18:51:00 0.00, -75.28 -0.79, -79.09 432.60 80
5 11/02/2018 06:17:24 -0.00, -75.31 -0.96, -70.94 496.64 80
6 11/02/2018 18:38:48 0.00, -75.31 -0.16, -76.13 93.54 80
7 11/04/2018 18:29:16 -0.00, -75.34 0.48, -73.18 246.44 80
8 11/05/2018 06:50:30 0.00, -75.36 0.63, -78.33 338.17 80
9 11/07/2018 06:35:38 0.00, -75.39 -0.01, -75.37 2.61 80
10 11/09/2018 06:23:27 0.01, -75.44 -0.65, -72.42 343.93 80
11 11/09/2018 18:44:50 -0.01, -75.44 -0.44, -77.61 245.62 80




NCC Satellite Simultaneous Nadir Overpasses (SNOs) Prediction Service
